Year,Month,Day,Hour,Minute,Value (Times are PST for temperature in C)
2007,05,22,00,00,9.60
2007,05,22,00,01,9.60
2007,05,22,00,02,9.60
2007,05,22,00,03,9.50
2007,05,22,00,04,9.50
2007,05,22,00,05,9.60
2007,05,22,00,06,9.60
2007,05,22,00,07,9.60
2007,05,22,00,08,9.60
2007,05,22,00,09,9.60
2007,05,22,00,10,9.60
2007,05,22,00,11,9.60
2007,05,22,00,12,9.60
2007,05,22,00,13,9.60
2007,05,22,00,14,9.60
2007,05,22,00,15,9.50
2007,05,22,00,16,9.50
2007,05,22,00,17,9.50
2007,05,22,00,18,9.60
2007,05,22,00,19,9.60
2007,05,22,00,20,9.60
2007,05,22,00,21,9.60
2007,05,22,00,22,9.60
2007,05,22,00,23,9.60
2007,05,22,00,24,9.60
2007,05,22,00,25,9.60
2007,05,22,00,26,9.60
2007,05,22,00,27,9.60
2007,05,22,00,28,9.60
2007,05,22,00,29,9.60
2007,05,22,00,30,9.60
2007,05,22,00,31,9.50
2007,05,22,00,32,9.50
2007,05,22,00,33,9.50
2007,05,22,00,34,9.50
2007,05,22,00,35,9.50
2007,05,22,00,36,9.50
2007,05,22,00,37,9.50
2007,05,22,00,38,9.50
2007,05,22,00,39,9.50
2007,05,22,00,40,9.40
2007,05,22,00,41,9.40
2007,05,22,00,42,9.40
2007,05,22,00,43,9.40
2007,05,22,00,44,9.40
2007,05,22,00,45,9.40
2007,05,22,00,46,9.40
2007,05,22,00,47,9.40
2007,05,22,00,48,9.40
2007,05,22,00,49,9.30
2007,05,22,00,50,9.30
2007,05,22,00,51,9.30
2007,05,22,00,52,9.30
2007,05,22,00,53,9.20
2007,05,22,00,54,9.20
2007,05,22,00,55,9.20
2007,05,22,00,56,9.20
2007,05,22,00,57,9.20
2007,05,22,00,58,9.20
2007,05,22,00,59,9.20
2007,05,22,01,00,9.20
2007,05,22,01,01,9.20
2007,05,22,01,02,9.20
2007,05,22,01,03,9.20
2007,05,22,01,04,9.20
2007,05,22,01,05,9.10
2007,05,22,01,06,9.10
2007,05,22,01,07,9.10
2007,05,22,01,08,9.10
2007,05,22,01,09,9.10
2007,05,22,01,10,9.00
2007,05,22,01,11,9.00
2007,05,22,01,12,9.00
2007,05,22,01,13,9.00
2007,05,22,01,14,8.90
2007,05,22,01,15,8.90
2007,05,22,01,16,8.90
2007,05,22,01,17,8.90
2007,05,22,01,18,8.90
2007,05,22,01,19,8.90
2007,05,22,01,20,8.80
2007,05,22,01,21,8.80
2007,05,22,01,22,8.80
2007,05,22,01,23,8.80
2007,05,22,01,24,8.80
2007,05,22,01,25,8.80
2007,05,22,01,26,8.80
2007,05,22,01,27,8.80
2007,05,22,01,28,8.70
2007,05,22,01,29,8.70
2007,05,22,01,30,8.70
2007,05,22,01,31,8.70
2007,05,22,01,32,8.70
2007,05,22,01,33,8.70
2007,05,22,01,34,8.70
2007,05,22,01,35,8.70
2007,05,22,01,36,8.70
2007,05,22,01,37,8.70
2007,05,22,01,38,8.70
2007,05,22,01,39,8.70
2007,05,22,01,40,8.70
2007,05,22,01,41,8.70
2007,05,22,01,42,8.60
2007,05,22,01,43,8.60
2007,05,22,01,44,8.60
2007,05,22,01,45,8.60
2007,05,22,01,46,8.50
2007,05,22,01,47,8.50
2007,05,22,01,48,8.50
2007,05,22,01,49,8.50
2007,05,22,01,50,8.40
2007,05,22,01,51,8.40
2007,05,22,01,52,8.40
2007,05,22,01,53,8.30
2007,05,22,01,54,8.30
2007,05,22,01,55,8.30
2007,05,22,01,56,8.20
2007,05,22,01,57,8.20
2007,05,22,01,58,8.20
2007,05,22,01,59,8.20
2007,05,22,02,00,8.20
2007,05,22,02,01,8.10
2007,05,22,02,02,8.10
2007,05,22,02,03,8.10
2007,05,22,02,04,8.00
2007,05,22,02,05,8.00
2007,05,22,02,06,7.90
2007,05,22,02,07,7.90
2007,05,22,02,08,7.90
2007,05,22,02,09,7.80
2007,05,22,02,10,7.80
2007,05,22,02,11,7.80
2007,05,22,02,12,7.80
2007,05,22,02,13,7.70
2007,05,22,02,14,7.70
2007,05,22,02,15,7.70
2007,05,22,02,16,7.70
2007,05,22,02,17,7.70
2007,05,22,02,18,7.70
2007,05,22,02,19,7.60
2007,05,22,02,20,7.60
2007,05,22,02,21,7.60
2007,05,22,02,22,7.60
2007,05,22,02,23,7.50
2007,05,22,02,24,7.50
2007,05,22,02,25,7.50
2007,05,22,02,26,7.50
2007,05,22,02,27,7.40
2007,05,22,02,28,7.40
2007,05,22,02,29,7.30
2007,05,22,02,30,7.30
2007,05,22,02,31,7.30
2007,05,22,02,32,7.30
2007,05,22,02,33,7.30
2007,05,22,02,34,7.30
2007,05,22,02,35,7.30
2007,05,22,02,36,7.30
2007,05,22,02,37,7.30
2007,05,22,02,38,7.20
2007,05,22,02,39,7.20
2007,05,22,02,40,7.20
2007,05,22,02,41,7.20
2007,05,22,02,42,7.20
2007,05,22,02,43,7.20
2007,05,22,02,44,7.20
2007,05,22,02,45,7.20
2007,05,22,02,46,7.20
2007,05,22,02,47,7.20
2007,05,22,02,48,7.20
2007,05,22,02,49,7.20
2007,05,22,02,50,7.10
2007,05,22,02,51,7.10
2007,05,22,02,52,7.10
2007,05,22,02,53,7.10
2007,05,22,02,54,7.10
2007,05,22,02,55,7.10
2007,05,22,02,56,7.00
2007,05,22,02,57,7.00
2007,05,22,02,58,7.00
2007,05,22,02,59,7.00
2007,05,22,03,00,7.00
2007,05,22,03,01,6.90
2007,05,22,03,02,6.90
2007,05,22,03,03,6.90
2007,05,22,03,04,6.90
2007,05,22,03,05,6.90
2007,05,22,03,06,6.90
2007,05,22,03,07,6.90
2007,05,22,03,08,6.90
2007,05,22,03,09,7.00
2007,05,22,03,10,7.00
2007,05,22,03,11,7.00
2007,05,22,03,12,7.00
2007,05,22,03,13,7.00
2007,05,22,03,14,7.00
2007,05,22,03,15,7.00
2007,05,22,03,16,7.00
2007,05,22,03,17,7.00
2007,05,22,03,18,7.00
2007,05,22,03,19,7.00
2007,05,22,03,20,6.90
2007,05,22,03,21,6.90
2007,05,22,03,22,6.90
2007,05,22,03,23,6.90
2007,05,22,03,24,6.90
2007,05,22,03,25,6.90
2007,05,22,03,26,6.90
2007,05,22,03,27,6.90
2007,05,22,03,28,6.90
2007,05,22,03,29,6.90
2007,05,22,03,30,6.90
2007,05,22,03,31,6.90
2007,05,22,03,32,6.90
2007,05,22,03,33,6.90
2007,05,22,03,34,6.90
2007,05,22,03,35,6.90
2007,05,22,03,36,6.90
2007,05,22,03,37,6.80
2007,05,22,03,38,6.80
2007,05,22,03,39,6.80
2007,05,22,03,40,6.80
2007,05,22,03,41,6.80
2007,05,22,03,42,6.80
2007,05,22,03,43,6.80
2007,05,22,03,44,6.80
2007,05,22,03,45,6.80
2007,05,22,03,46,6.80
2007,05,22,03,47,6.80
2007,05,22,03,48,6.80
2007,05,22,03,49,6.80
2007,05,22,03,50,6.80
2007,05,22,03,51,6.80
2007,05,22,03,52,6.80
2007,05,22,03,53,6.80
2007,05,22,03,54,6.80
2007,05,22,03,55,6.80
2007,05,22,03,56,6.80
2007,05,22,03,57,6.80
2007,05,22,03,58,6.80
2007,05,22,03,59,6.80
2007,05,22,04,00,6.80
2007,05,22,04,01,6.80
2007,05,22,04,02,6.80
2007,05,22,04,03,6.80
2007,05,22,04,04,6.80
2007,05,22,04,05,6.80
2007,05,22,04,06,6.80
2007,05,22,04,07,6.70
2007,05,22,04,08,6.70
2007,05,22,04,09,6.70
2007,05,22,04,10,6.70
2007,05,22,04,11,6.60
2007,05,22,04,12,6.60
2007,05,22,04,13,6.60
2007,05,22,04,14,6.60
2007,05,22,04,15,6.60
2007,05,22,04,16,6.60
2007,05,22,04,17,6.60
2007,05,22,04,18,6.60
2007,05,22,04,19,6.60
2007,05,22,04,20,6.60
2007,05,22,04,21,6.60
2007,05,22,04,22,6.60
2007,05,22,04,23,6.50
2007,05,22,04,24,6.40
2007,05,22,04,25,6.40
2007,05,22,04,26,6.40
2007,05,22,04,27,6.40
2007,05,22,04,28,6.40
2007,05,22,04,29,6.40
2007,05,22,04,30,6.40
2007,05,22,04,31,6.40
2007,05,22,04,32,6.40
2007,05,22,04,33,6.40
2007,05,22,04,34,6.40
2007,05,22,04,35,6.40
2007,05,22,04,36,6.40
2007,05,22,04,37,6.40
2007,05,22,04,38,6.30
2007,05,22,04,39,6.30
2007,05,22,04,40,6.30
2007,05,22,04,41,6.30
2007,05,22,04,42,6.30
2007,05,22,04,43,6.20
2007,05,22,04,44,6.20
2007,05,22,04,45,6.20
2007,05,22,04,46,6.20
2007,05,22,04,47,6.20
2007,05,22,04,48,6.20
2007,05,22,04,49,6.20
2007,05,22,04,50,6.20
2007,05,22,04,51,6.20
2007,05,22,04,52,6.20
2007,05,22,04,53,6.20
2007,05,22,04,54,6.20
2007,05,22,04,55,6.20
2007,05,22,04,56,6.20
2007,05,22,04,57,6.20
2007,05,22,04,58,6.20
2007,05,22,04,59,6.20
2007,05,22,05,00,6.20
2007,05,22,05,01,6.20
2007,05,22,05,02,6.20
2007,05,22,05,03,6.20
2007,05,22,05,04,6.20
2007,05,22,05,05,6.20
2007,05,22,05,06,6.20
2007,05,22,05,07,6.20
2007,05,22,05,08,6.20
2007,05,22,05,09,6.10
2007,05,22,05,10,6.10
2007,05,22,05,11,6.10
2007,05,22,05,12,6.10
2007,05,22,05,13,6.00
2007,05,22,05,14,6.00
2007,05,22,05,15,6.00
2007,05,22,05,16,6.00
2007,05,22,05,17,6.00
2007,05,22,05,18,6.00
2007,05,22,05,19,6.00
2007,05,22,05,20,6.00
2007,05,22,05,21,5.90
2007,05,22,05,22,5.90
2007,05,22,05,23,5.90
2007,05,22,05,24,6.00
2007,05,22,05,25,6.00
2007,05,22,05,26,6.00
2007,05,22,05,27,6.00
2007,05,22,05,28,5.90
2007,05,22,05,29,5.90
2007,05,22,05,30,5.90
2007,05,22,05,31,5.90
2007,05,22,05,32,5.90
2007,05,22,05,33,5.90
2007,05,22,05,34,5.90
2007,05,22,05,35,5.90
2007,05,22,05,36,5.90
2007,05,22,05,37,5.90
2007,05,22,05,38,5.90
2007,05,22,05,39,5.90
2007,05,22,05,40,5.90
2007,05,22,05,41,5.90
2007,05,22,05,42,5.90
2007,05,22,05,43,5.90
2007,05,22,05,44,6.00
2007,05,22,05,45,6.00
2007,05,22,05,46,6.00
2007,05,22,05,47,6.00
2007,05,22,05,48,6.00
2007,05,22,05,49,6.00
2007,05,22,05,50,6.10
2007,05,22,05,51,6.10
2007,05,22,05,52,6.10
2007,05,22,05,53,6.10
2007,05,22,05,54,6.20
2007,05,22,05,55,6.20
2007,05,22,05,56,6.20
2007,05,22,05,57,6.20
2007,05,22,05,58,6.20
2007,05,22,05,59,6.20
2007,05,22,06,00,6.20
2007,05,22,06,01,6.20
2007,05,22,06,02,6.20
2007,05,22,06,03,6.30
2007,05,22,06,04,6.30
2007,05,22,06,05,6.30
2007,05,22,06,06,6.40
2007,05,22,06,07,6.40
2007,05,22,06,08,6.50
2007,05,22,06,09,6.60
2007,05,22,06,10,6.60
2007,05,22,06,11,6.70
2007,05,22,06,12,6.70
2007,05,22,06,13,6.80
2007,05,22,06,14,6.80
2007,05,22,06,15,6.80
2007,05,22,06,16,6.90
2007,05,22,06,17,7.00
2007,05,22,06,18,7.10
2007,05,22,06,19,7.10
2007,05,22,06,20,7.20
2007,05,22,06,21,7.30
2007,05,22,06,22,7.40
2007,05,22,06,23,7.40
2007,05,22,06,24,7.50
2007,05,22,06,25,7.60
2007,05,22,06,26,7.70
2007,05,22,06,27,7.80
2007,05,22,06,28,7.90
2007,05,22,06,29,7.90
2007,05,22,06,30,8.00
2007,05,22,06,31,8.10
2007,05,22,06,32,8.20
2007,05,22,06,33,8.20
2007,05,22,06,34,8.30
2007,05,22,06,35,8.40
2007,05,22,06,36,8.40
2007,05,22,06,37,8.50
2007,05,22,06,38,8.60
2007,05,22,06,39,8.60
2007,05,22,06,40,8.70
2007,05,22,06,41,8.70
2007,05,22,06,42,8.80
2007,05,22,06,43,8.90
2007,05,22,06,44,9.00
2007,05,22,06,45,9.10
2007,05,22,06,46,9.20
2007,05,22,06,47,9.40
2007,05,22,06,48,9.50
2007,05,22,06,49,9.60
2007,05,22,06,50,9.70
2007,05,22,06,51,9.70
2007,05,22,06,52,9.70
2007,05,22,06,53,9.80
2007,05,22,06,54,9.80
2007,05,22,06,55,9.80
2007,05,22,06,56,9.80
2007,05,22,06,57,9.80
2007,05,22,06,58,9.80
2007,05,22,06,59,9.80
2007,05,22,07,00,9.90
2007,05,22,07,01,10.00
2007,05,22,07,02,10.10
2007,05,22,07,03,10.30
2007,05,22,07,04,10.40
2007,05,22,07,05,10.40
2007,05,22,07,06,10.50
2007,05,22,07,07,10.60
2007,05,22,07,08,10.70
2007,05,22,07,09,10.80
2007,05,22,07,10,10.90
2007,05,22,07,11,10.90
2007,05,22,07,12,10.90
2007,05,22,07,13,11.10
2007,05,22,07,14,11.10
2007,05,22,07,15,11.10
2007,05,22,07,16,11.20
2007,05,22,07,17,11.20
2007,05,22,07,18,11.20
2007,05,22,07,19,11.20
2007,05,22,07,20,11.10
2007,05,22,07,21,11.10
2007,05,22,07,22,11.10
2007,05,22,07,23,11.10
2007,05,22,07,24,10.90
2007,05,22,07,25,10.90
2007,05,22,07,26,10.90
2007,05,22,07,27,10.90
2007,05,22,07,28,10.90
2007,05,22,07,29,10.90
2007,05,22,07,30,10.90
2007,05,22,07,31,10.90
2007,05,22,07,32,10.90
2007,05,22,07,33,10.90
2007,05,22,07,34,10.90
2007,05,22,07,35,10.90
2007,05,22,07,36,11.00
2007,05,22,07,37,11.10
2007,05,22,07,38,11.10
2007,05,22,07,39,11.10
2007,05,22,07,40,11.10
2007,05,22,07,41,11.10
2007,05,22,07,42,11.10
2007,05,22,07,43,11.10
2007,05,22,07,44,11.10
2007,05,22,07,45,11.10
2007,05,22,07,46,11.10
2007,05,22,07,47,11.10
2007,05,22,07,48,11.10
2007,05,22,07,49,11.10
2007,05,22,07,50,11.10
2007,05,22,07,51,11.10
2007,05,22,07,52,11.00
2007,05,22,07,53,10.90
2007,05,22,07,54,10.90
2007,05,22,07,55,10.90
2007,05,22,07,56,10.90
2007,05,22,07,57,10.90
2007,05,22,07,58,10.90
2007,05,22,07,59,10.90
2007,05,22,08,00,11.00
2007,05,22,08,01,11.10
2007,05,22,08,02,11.10
2007,05,22,08,03,11.10
2007,05,22,08,04,11.10
2007,05,22,08,05,11.10
2007,05,22,08,06,11.10
2007,05,22,08,07,11.10
2007,05,22,08,08,11.10
2007,05,22,08,09,11.10
2007,05,22,08,10,11.20
2007,05,22,08,11,11.30
2007,05,22,08,12,11.40
2007,05,22,08,13,11.40
2007,05,22,08,14,11.50
2007,05,22,08,15,11.60
2007,05,22,08,16,11.70
2007,05,22,08,17,11.80
2007,05,22,08,18,11.80
2007,05,22,08,19,11.80
2007,05,22,08,20,11.90
2007,05,22,08,21,11.90
2007,05,22,08,22,11.90
2007,05,22,08,23,11.90
2007,05,22,08,24,11.90
2007,05,22,08,25,11.90
2007,05,22,08,26,11.90
2007,05,22,08,27,11.90
2007,05,22,08,28,11.90
2007,05,22,08,29,11.90
2007,05,22,08,30,11.90
2007,05,22,08,31,11.90
2007,05,22,08,32,11.90
2007,05,22,08,33,12.00
2007,05,22,08,34,12.00
2007,05,22,08,35,12.10
2007,05,22,08,36,12.20
2007,05,22,08,37,12.20
2007,05,22,08,38,12.20
2007,05,22,08,39,12.30
2007,05,22,08,40,12.30
2007,05,22,08,41,12.30
2007,05,22,08,42,12.30
2007,05,22,08,43,12.30
2007,05,22,08,44,12.40
2007,05,22,08,45,12.40
2007,05,22,08,46,12.40
2007,05,22,08,47,12.40
2007,05,22,08,48,12.40
2007,05,22,08,49,12.40
2007,05,22,08,50,12.50
2007,05,22,08,51,12.50
2007,05,22,08,52,12.60
2007,05,22,08,53,12.60
2007,05,22,08,54,12.70
2007,05,22,08,55,12.70
2007,05,22,08,56,12.80
2007,05,22,08,57,12.80
2007,05,22,08,58,12.80
2007,05,22,08,59,12.80
2007,05,22,09,00,12.80
2007,05,22,09,01,12.80
2007,05,22,09,02,12.80
2007,05,22,09,03,12.80
2007,05,22,09,04,12.80
2007,05,22,09,05,12.80
2007,05,22,09,06,12.80
2007,05,22,09,07,12.80
2007,05,22,09,08,12.80
2007,05,22,09,09,12.90
2007,05,22,09,10,13.00
2007,05,22,09,11,13.00
2007,05,22,09,12,13.00
2007,05,22,09,13,13.00
2007,05,22,09,14,13.00
2007,05,22,09,15,13.10
2007,05,22,09,16,13.10
2007,05,22,09,17,13.10
2007,05,22,09,18,13.10
2007,05,22,09,19,13.20
2007,05,22,09,20,13.20
2007,05,22,09,21,13.30
2007,05,22,09,22,13.30
2007,05,22,09,23,13.30
2007,05,22,09,24,13.20
2007,05,22,09,25,13.20
2007,05,22,09,26,13.30
2007,05,22,09,27,13.30
2007,05,22,09,28,13.30
2007,05,22,09,29,13.30
2007,05,22,09,30,13.40
2007,05,22,09,31,13.50
2007,05,22,09,32,13.50
2007,05,22,09,33,13.50
2007,05,22,09,34,13.60
2007,05,22,09,35,13.70
2007,05,22,09,36,13.70
2007,05,22,09,37,13.80
2007,05,22,09,38,13.80
2007,05,22,09,39,13.80
2007,05,22,09,40,13.80
2007,05,22,09,41,13.80
2007,05,22,09,42,13.80
2007,05,22,09,43,13.70
2007,05,22,09,44,13.70
2007,05,22,09,45,13.60
2007,05,22,09,46,13.60
2007,05,22,09,47,13.60
2007,05,22,09,48,13.60
2007,05,22,09,49,13.60
2007,05,22,09,50,13.60
2007,05,22,09,51,13.70
2007,05,22,09,52,13.70
2007,05,22,09,53,13.70
2007,05,22,09,54,13.70
2007,05,22,09,55,13.70
2007,05,22,09,56,13.80
2007,05,22,09,57,13.90
2007,05,22,09,58,13.90
2007,05,22,09,59,14.00
2007,05,22,10,00,14.00
2007,05,22,10,01,13.90
2007,05,22,10,02,13.80
2007,05,22,10,03,13.70
2007,05,22,10,04,13.60
2007,05,22,10,05,13.70
2007,05,22,10,06,13.70
2007,05,22,10,07,13.70
2007,05,22,10,08,13.80
2007,05,22,10,09,13.90
2007,05,22,10,10,14.00
2007,05,22,10,11,14.00
2007,05,22,10,12,14.10
2007,05,22,10,13,14.10
2007,05,22,10,14,14.10
2007,05,22,10,15,14.00
2007,05,22,10,16,14.00
2007,05,22,10,17,13.90
2007,05,22,10,18,13.90
2007,05,22,10,19,13.90
2007,05,22,10,20,13.90
2007,05,22,10,21,13.90
2007,05,22,10,22,14.00
2007,05,22,10,23,13.90
2007,05,22,10,24,13.90
2007,05,22,10,25,13.80
2007,05,22,10,26,13.80
2007,05,22,10,27,13.70
2007,05,22,10,28,13.60
2007,05,22,10,29,13.60
2007,05,22,10,30,13.60
2007,05,22,10,31,13.60
2007,05,22,10,32,13.60
2007,05,22,10,33,13.60
2007,05,22,10,34,13.60
2007,05,22,10,35,13.70
2007,05,22,10,36,13.70
2007,05,22,10,37,13.70
2007,05,22,10,38,13.70
2007,05,22,10,39,13.70
2007,05,22,10,40,13.90
2007,05,22,10,41,14.00
2007,05,22,10,42,14.00
2007,05,22,10,43,14.00
2007,05,22,10,44,14.00
2007,05,22,10,45,14.10
2007,05,22,10,46,14.10
2007,05,22,10,47,14.20
2007,05,22,10,48,14.30
2007,05,22,10,49,14.50
2007,05,22,10,50,14.60
2007,05,22,10,51,14.70
2007,05,22,10,52,14.60
2007,05,22,10,53,14.50
2007,05,22,10,54,14.40
2007,05,22,10,55,14.40
2007,05,22,10,56,14.30
2007,05,22,10,57,14.20
2007,05,22,10,58,14.20
2007,05,22,10,59,14.20
2007,05,22,11,00,14.20
2007,05,22,11,01,14.20
2007,05,22,11,02,14.10
2007,05,22,11,03,14.10
2007,05,22,11,04,14.20
2007,05,22,11,05,14.30
2007,05,22,11,06,14.50
2007,05,22,11,07,14.50
2007,05,22,11,08,14.50
2007,05,22,11,09,14.60
2007,05,22,11,10,14.60
2007,05,22,11,11,14.70
2007,05,22,11,12,14.70
2007,05,22,11,13,14.60
2007,05,22,11,14,14.50
2007,05,22,11,15,14.50
2007,05,22,11,16,14.50
2007,05,22,11,17,14.50
2007,05,22,11,18,14.50
2007,05,22,11,19,14.30
2007,05,22,11,20,14.20
2007,05,22,11,21,14.20
2007,05,22,11,22,14.20
2007,05,22,11,23,14.30
2007,05,22,11,24,14.40
2007,05,22,11,25,14.30
2007,05,22,11,26,14.30
2007,05,22,11,27,14.40
2007,05,22,11,28,14.50
2007,05,22,11,29,14.60
2007,05,22,11,30,14.60
2007,05,22,11,31,14.60
2007,05,22,11,32,14.50
2007,05,22,11,33,14.50
2007,05,22,11,34,14.50
2007,05,22,11,35,14.60
2007,05,22,11,36,14.50
2007,05,22,11,37,14.60
2007,05,22,11,38,14.70
2007,05,22,11,39,14.80
2007,05,22,11,40,14.80
2007,05,22,11,41,14.80
2007,05,22,11,42,14.80
2007,05,22,11,43,14.80
2007,05,22,11,44,14.80
2007,05,22,11,45,14.90
2007,05,22,11,46,15.00
2007,05,22,11,47,15.10
2007,05,22,11,48,15.00
2007,05,22,11,49,14.90
2007,05,22,11,50,14.80
2007,05,22,11,51,14.70
2007,05,22,11,52,14.80
2007,05,22,11,53,15.00
2007,05,22,11,54,15.10
2007,05,22,11,55,15.10
2007,05,22,11,56,15.10
2007,05,22,11,57,15.10
2007,05,22,11,58,15.00
2007,05,22,11,59,15.00
2007,05,22,12,00,14.90
2007,05,22,12,01,14.90
2007,05,22,12,02,15.00
2007,05,22,12,03,15.10
2007,05,22,12,04,15.10
2007,05,22,12,05,15.10
2007,05,22,12,06,15.20
2007,05,22,12,07,15.40
2007,05,22,12,08,15.60
2007,05,22,12,09,15.50
2007,05,22,12,10,15.50
2007,05,22,12,11,15.30
2007,05,22,12,12,15.30
2007,05,22,12,13,15.30
2007,05,22,12,14,15.30
2007,05,22,12,15,15.50
2007,05,22,12,16,15.50
2007,05,22,12,17,15.50
2007,05,22,12,18,15.50
2007,05,22,12,19,15.50
2007,05,22,12,20,15.40
2007,05,22,12,21,15.30
2007,05,22,12,22,15.30
2007,05,22,12,23,15.30
2007,05,22,12,24,15.30
2007,05,22,12,25,15.40
2007,05,22,12,26,15.60
2007,05,22,12,27,15.70
2007,05,22,12,28,15.80
2007,05,22,12,29,15.80
2007,05,22,12,30,15.80
2007,05,22,12,31,15.70
2007,05,22,12,32,15.60
2007,05,22,12,33,15.60
2007,05,22,12,34,15.50
2007,05,22,12,35,15.40
2007,05,22,12,36,15.30
2007,05,22,12,37,15.30
2007,05,22,12,38,15.10
2007,05,22,12,39,15.10
2007,05,22,12,40,15.00
2007,05,22,12,41,14.90
2007,05,22,12,42,14.90
2007,05,22,12,43,14.90
2007,05,22,12,44,14.80
2007,05,22,12,45,14.80
2007,05,22,12,46,15.00
2007,05,22,12,47,15.10
2007,05,22,12,48,15.20
2007,05,22,12,49,15.20
2007,05,22,12,50,15.30
2007,05,22,12,51,15.30
2007,05,22,12,52,15.50
2007,05,22,12,53,15.50
2007,05,22,12,54,15.30
2007,05,22,12,55,15.30
2007,05,22,12,56,15.30
2007,05,22,12,57,15.30
2007,05,22,12,58,15.40
2007,05,22,12,59,15.50
2007,05,22,13,00,15.50
2007,05,22,13,01,15.40
2007,05,22,13,02,15.20
2007,05,22,13,03,15.10
2007,05,22,13,04,15.10
2007,05,22,13,05,15.10
2007,05,22,13,06,15.10
2007,05,22,13,07,15.10
2007,05,22,13,08,15.20
2007,05,22,13,09,15.20
2007,05,22,13,10,15.30
2007,05,22,13,11,15.30
2007,05,22,13,12,15.40
2007,05,22,13,13,15.40
2007,05,22,13,14,15.30
2007,05,22,13,15,15.20
2007,05,22,13,16,15.20
2007,05,22,13,17,15.10
2007,05,22,13,18,15.10
2007,05,22,13,19,15.00
2007,05,22,13,20,14.90
2007,05,22,13,21,14.90
2007,05,22,13,22,14.80
2007,05,22,13,23,14.80
2007,05,22,13,24,14.90
2007,05,22,13,25,14.90
2007,05,22,13,26,14.90
2007,05,22,13,27,15.20
2007,05,22,13,28,15.20
2007,05,22,13,29,15.30
2007,05,22,13,30,15.30
2007,05,22,13,31,15.30
2007,05,22,13,32,15.30
2007,05,22,13,33,15.30
2007,05,22,13,34,15.30
2007,05,22,13,35,15.40
2007,05,22,13,36,15.30
2007,05,22,13,37,15.10
2007,05,22,13,38,15.00
2007,05,22,13,39,15.00
2007,05,22,13,40,15.10
2007,05,22,13,41,15.20
2007,05,22,13,42,15.30
2007,05,22,13,43,15.40
2007,05,22,13,44,15.40
2007,05,22,13,45,15.40
2007,05,22,13,46,15.40
2007,05,22,13,47,15.30
2007,05,22,13,48,15.30
2007,05,22,13,49,15.30
2007,05,22,13,50,15.30
2007,05,22,13,51,15.30
2007,05,22,13,52,15.20
2007,05,22,13,53,15.20
2007,05,22,13,54,15.10
2007,05,22,13,55,15.10
2007,05,22,13,56,15.10
2007,05,22,13,57,15.10
2007,05,22,13,58,15.00
2007,05,22,13,59,15.00
2007,05,22,14,00,15.00
2007,05,22,14,01,15.00
2007,05,22,14,02,15.10
2007,05,22,14,03,15.20
2007,05,22,14,04,15.40
2007,05,22,14,05,15.40
2007,05,22,14,06,15.40
2007,05,22,14,07,15.50
2007,05,22,14,08,15.50
2007,05,22,14,09,15.50
2007,05,22,14,10,15.50
2007,05,22,14,11,15.50
2007,05,22,14,12,15.50
2007,05,22,14,13,15.40
2007,05,22,14,14,15.30
2007,05,22,14,15,15.40
2007,05,22,14,16,15.50
2007,05,22,14,17,15.60
2007,05,22,14,18,15.60
2007,05,22,14,19,15.70
2007,05,22,14,20,15.80
2007,05,22,14,21,15.80
2007,05,22,14,22,15.70
2007,05,22,14,23,15.60
2007,05,22,14,24,15.50
2007,05,22,14,25,15.40
2007,05,22,14,26,15.30
2007,05,22,14,27,15.40
2007,05,22,14,28,15.50
2007,05,22,14,29,15.50
2007,05,22,14,30,15.50
2007,05,22,14,31,15.50
2007,05,22,14,32,15.50
2007,05,22,14,33,15.50
2007,05,22,14,34,15.60
2007,05,22,14,35,15.60
2007,05,22,14,36,15.50
2007,05,22,14,37,15.40
2007,05,22,14,38,15.40
2007,05,22,14,39,15.50
2007,05,22,14,40,15.50
2007,05,22,14,41,15.50
2007,05,22,14,42,15.50
2007,05,22,14,43,15.40
2007,05,22,14,44,15.30
2007,05,22,14,45,15.30
2007,05,22,14,46,15.30
2007,05,22,14,47,15.40
2007,05,22,14,48,15.40
2007,05,22,14,49,15.50
2007,05,22,14,50,15.50
2007,05,22,14,51,15.60
2007,05,22,14,52,15.60
2007,05,22,14,53,15.60
2007,05,22,14,54,15.60
2007,05,22,14,55,15.60
2007,05,22,14,56,15.60
2007,05,22,14,57,15.70
2007,05,22,14,58,15.60
2007,05,22,14,59,15.60
2007,05,22,15,00,15.60
2007,05,22,15,01,15.50
2007,05,22,15,02,15.50
2007,05,22,15,03,15.50
2007,05,22,15,04,15.50
2007,05,22,15,05,15.70
2007,05,22,15,06,15.80
2007,05,22,15,07,15.90
2007,05,22,15,08,15.80
2007,05,22,15,09,15.80
2007,05,22,15,10,15.80
2007,05,22,15,11,15.80
2007,05,22,15,12,15.70
2007,05,22,15,13,15.70
2007,05,22,15,14,15.80
2007,05,22,15,15,16.00
2007,05,22,15,16,16.10
2007,05,22,15,17,16.10
2007,05,22,15,18,16.10
2007,05,22,15,19,15.90
2007,05,22,15,20,15.80
2007,05,22,15,21,15.80
2007,05,22,15,22,15.80
2007,05,22,15,23,15.70
2007,05,22,15,24,15.70
2007,05,22,15,25,15.70
2007,05,22,15,26,15.70
2007,05,22,15,27,15.60
2007,05,22,15,28,15.60
2007,05,22,15,29,15.60
2007,05,22,15,30,15.70
2007,05,22,15,31,15.70
2007,05,22,15,32,15.80
2007,05,22,15,33,15.80
2007,05,22,15,34,15.70
2007,05,22,15,35,15.70
2007,05,22,15,36,15.80
2007,05,22,15,37,15.80
2007,05,22,15,38,15.80
2007,05,22,15,39,15.80
2007,05,22,15,40,15.80
2007,05,22,15,41,15.80
2007,05,22,15,42,15.80
2007,05,22,15,43,15.80
2007,05,22,15,44,15.80
2007,05,22,15,45,15.80
2007,05,22,15,46,15.80
2007,05,22,15,47,15.80
2007,05,22,15,48,15.70
2007,05,22,15,49,15.70
2007,05,22,15,50,15.80
2007,05,22,15,51,15.60
2007,05,22,15,52,15.60
2007,05,22,15,53,15.60
2007,05,22,15,54,15.70
2007,05,22,15,55,15.80
2007,05,22,15,56,15.80
2007,05,22,15,57,15.70
2007,05,22,15,58,15.60
2007,05,22,15,59,15.60
2007,05,22,16,00,15.60
2007,05,22,16,01,15.50
2007,05,22,16,02,15.50
2007,05,22,16,03,15.50
2007,05,22,16,04,15.50
2007,05,22,16,05,15.50
2007,05,22,16,06,15.60
2007,05,22,16,07,15.60
2007,05,22,16,08,15.60
2007,05,22,16,09,15.50
2007,05,22,16,10,15.50
2007,05,22,16,11,15.50
2007,05,22,16,12,15.60
2007,05,22,16,13,15.50
2007,05,22,16,14,15.50
2007,05,22,16,15,15.40
2007,05,22,16,16,15.40
2007,05,22,16,17,15.40
2007,05,22,16,18,15.40
2007,05,22,16,19,15.40
2007,05,22,16,20,15.50
2007,05,22,16,21,15.50
2007,05,22,16,22,15.50
2007,05,22,16,23,15.50
2007,05,22,16,24,15.50
2007,05,22,16,25,15.40
2007,05,22,16,26,15.30
2007,05,22,16,27,15.30
2007,05,22,16,28,15.30
2007,05,22,16,29,15.30
2007,05,22,16,30,15.30
2007,05,22,16,31,15.40
2007,05,22,16,32,15.50
2007,05,22,16,33,15.40
2007,05,22,16,34,15.50
2007,05,22,16,35,15.60
2007,05,22,16,36,15.70
2007,05,22,16,37,15.70
2007,05,22,16,38,15.70
2007,05,22,16,39,15.60
2007,05,22,16,40,15.60
2007,05,22,16,41,15.50
2007,05,22,16,42,15.50
2007,05,22,16,43,15.50
2007,05,22,16,44,15.50
2007,05,22,16,45,15.60
2007,05,22,16,46,15.60
2007,05,22,16,47,15.60
2007,05,22,16,48,15.80
2007,05,22,16,49,15.80
2007,05,22,16,50,15.80
2007,05,22,16,51,15.80
2007,05,22,16,52,15.80
2007,05,22,16,53,15.80
2007,05,22,16,54,15.90
2007,05,22,16,55,16.00
2007,05,22,16,56,16.10
2007,05,22,16,57,16.10
2007,05,22,16,58,16.10
2007,05,22,16,59,16.00
2007,05,22,17,00,16.00
2007,05,22,17,01,16.00
2007,05,22,17,02,16.10
2007,05,22,17,03,16.10
2007,05,22,17,04,16.10
2007,05,22,17,05,16.20
2007,05,22,17,06,16.30
2007,05,22,17,07,16.30
2007,05,22,17,08,16.40
2007,05,22,17,09,16.40
2007,05,22,17,10,16.50
2007,05,22,17,11,16.40
2007,05,22,17,12,16.40
2007,05,22,17,13,16.40
2007,05,22,17,14,16.40
2007,05,22,17,15,16.40
2007,05,22,17,16,16.40
2007,05,22,17,17,16.40
2007,05,22,17,18,16.40
2007,05,22,17,19,16.40
2007,05,22,17,20,16.30
2007,05,22,17,21,16.30
2007,05,22,17,22,16.30
2007,05,22,17,23,16.30
2007,05,22,17,24,16.40
2007,05,22,17,25,16.40
2007,05,22,17,26,16.40
2007,05,22,17,27,16.40
2007,05,22,17,28,16.40
2007,05,22,17,29,16.40
2007,05,22,17,30,16.50
2007,05,22,17,31,16.60
2007,05,22,17,32,16.70
2007,05,22,17,33,16.70
2007,05,22,17,34,16.70
2007,05,22,17,35,16.80
2007,05,22,17,36,16.80
2007,05,22,17,37,17.00